Language: 


Des rapports , des résumés tant et plus, au choix de chacun....


Données statistiques de la station
Quotidien Rapport Septembre 25, 2017 Unités:  Anglais    Métrique   les deux
« Précédent Jour
Suivant Jour »
Quotidien Hebdomadaire Mensuel Annuel Actuel
  Haut: Bas: Moyen:
Température: 72.7 °F 32 °F 60.1 °F
Pt de rosée: 60.8 °F 50 °F 54.7 °F
Humidité: 98 % 0 % 82 %
Vitesse du vent: 5.8 mph 0 mph 1.4 mph
Rafales: 5.8 mph - -
Vent:- - ESE
Pression: 30.2 in 0 in -
Précipitation: 0 in    
Historical Graphs
 
 
Données statistiques pour Septembre 25, 2017
Heure Température Point de rosée Pression Vent Vitesse du vent Refales Humidité Pluie (taux horaire)
00:01 55 °F 50 °F 30.2 in Calm     83 % 0 in
00:06 55 °F 50 °F 30.2 in Calm     83 % 0 in
00:11 54.7 °F 51.8 °F 30.2 in Calm     85 % 0 in
00:16 54.7 °F 51.8 °F 30.1 in Calm     86 % 0 in
00:24 54.7 °F 51.8 °F 30.1 in Calm     86 % 0 in
00:29 54.5 °F 51.8 °F 30.1 in Calm     87 % 0 in
00:34 54.5 °F 51.8 °F 30.1 in Calm     87 % 0 in
00:39 54.5 °F 51.8 °F 30.1 in Calm     88 % 0 in
00:45 54.3 °F 51.8 °F 30.1 in NNE 2 mph 2 mph 88 % 0 in
00:50 54.1 °F 51.8 °F 30.1 in Calm   2 mph 88 % 0 in
00:55 54 °F 51.8 °F 30.1 in Calm   2 mph 89 % 0 in
01:00 53.8 °F 51.8 °F 30.1 in Calm     89 % 0 in
01:05 53.8 °F 51.8 °F 30.1 in Calm     89 % 0 in
01:10 53.6 °F 51.8 °F 30.1 in Calm   1.6 mph 91 % 0 in
01:15 53.4 °F 51.8 °F 30.1 in Calm   1.6 mph 91 % 0 in
01:20 53.2 °F 50 °F 30.1 in Calm     92 % 0 in
01:25 53.1 °F 50 °F 30.1 in Calm     91 % 0 in
01:30 52.9 °F 50 °F 30.1 in Calm     91 % 0 in
01:35 52.9 °F 50 °F 30.1 in Calm     92 % 0 in
01:40 52.7 °F 50 °F 30.1 in Calm     92 % 0 in
01:45 52.7 °F 50 °F 30.1 in NNE 0.9 mph 2.7 mph 92 % 0 in
01:50 52.7 °F 50 °F 30.1 in Calm   2.7 mph 92 % 0 in
01:55 52.7 °F 50 °F 30.1 in Calm   2.9 mph 92 % 0 in
02:00 52.7 °F 50 °F 30.1 in NNE 3.1 mph 3.1 mph 92 % 0 in
02:05 52.3 °F 50 °F 30.1 in Calm   3.1 mph 93 % 0 in
02:10 52.3 °F 50 °F 30.1 in Calm   3.1 mph 93 % 0 in
02:15 52.3 °F 50 °F 30.1 in NNE 3.8 mph 3.8 mph 93 % 0 in
02:21 52.3 °F 50 °F 30.1 in Calm   3.8 mph 94 % 0 in
02:26 52.2 °F 50 °F 30.1 in NNE 3.4 mph 3.8 mph 94 % 0 in
02:31 52 °F 50 °F 30.1 in NE 2.5 mph 3.4 mph 95 % 0 in
02:36 52 °F 50 °F 30.1 in NE 3.4 mph 4 mph 95 % 0 in
02:40 51.6 °F 50 °F 30.1 in North 1.1 mph 4 mph 95 % 0 in
02:46 51.4 °F 50 °F 30.1 in Calm   4 mph 95 % 0 in
02:51 51.3 °F 50 °F 30.1 in Calm   2.5 mph 95 % 0 in
02:56 51.3 °F 50 °F 30.1 in Calm   2.9 mph 95 % 0 in
03:01 32 °F 50 °F 0 in Calm     0 % 0 in
03:06 32 °F 50 °F 30.1 in Calm   2.9 mph 0 % 0 in
03:11 32 °F 50 °F 30.1 in NNE 3.4 mph 3.4 mph 0 % 0 in
03:17 50.9 °F 50 °F 30.1 in Calm   3.4 mph 95 % 0 in
03:22 50.9 °F 50 °F 30.1 in Calm     95 % 0 in
03:27 50.9 °F 50 °F 30.1 in Calm     96 % 0 in
03:32 50.9 °F 50 °F 30.1 in Calm     96 % 0 in
03:37 50.7 °F 50 °F 30.1 in NE 2.9 mph 2.9 mph 96 % 0 in
03:42 50.7 °F 50 °F 30.1 in Calm   2.9 mph 96 % 0 in
03:47 50.4 °F 50 °F 30.1 in Calm   1.6 mph 96 % 0 in
03:52 50.4 °F 50 °F 30.1 in Calm   1.6 mph 96 % 0 in
03:57 50.2 °F 50 °F 30.1 in Calm     96 % 0 in
04:02 50.2 °F 50 °F 30.1 in Calm     96 % 0 in
04:07 50 °F 50 °F 30.1 in Calm     96 % 0 in
04:12 50 °F 50 °F 30.1 in Calm     96 % 0 in
04:17 50 °F 50 °F 30.1 in Calm     96 % 0 in
04:22 50 °F 50 °F 30.1 in Calm     96 % 0 in
04:27 50.2 °F 50 °F 30.1 in Calm     97 % 0 in
04:33 50.4 °F 50 °F 30.1 in Calm   2 mph 97 % 0 in
04:38 50.5 °F 50 °F 30.1 in NE 2.5 mph 2.7 mph 98 % 0 in
04:43 50.5 °F 50 °F 30.1 in Calm   2.7 mph 98 % 0 in
04:48 50.4 °F 50 °F 30.1 in Calm   2.5 mph 98 % 0 in
04:53 50.4 °F 50 °F 30.1 in Calm     98 % 0 in
04:58 50.4 °F 50 °F 30.1 in Calm   3.4 mph 98 % 0 in
05:03 50.4 °F 50 °F 30.1 in Calm   3.4 mph 98 % 0 in
05:08 50.5 °F 50 °F 30.1 in Calm   1.6 mph 98 % 0 in
05:14 50.7 °F 50 °F 30.1 in North 2.5 mph 3.6 mph 98 % 0 in
05:20 50.9 °F 51.8 °F 30.1 in NNE 2 mph 2.5 mph 98 % 0 in
05:22 50.9 °F 51.8 °F 30.1 in Calm   3.1 mph 98 % 0 in
05:23 50.9 °F 51.8 °F 30.1 in Calm   3.1 mph 98 % 0 in
05:24 50.9 °F 51.8 °F 30.1 in Calm   3.1 mph 98 % 0 in
05:26 50.9 °F 51.8 °F 30.1 in Calm   3.1 mph 98 % 0 in
05:32 50.9 °F 51.8 °F 30.1 in Calm     98 % 0 in
05:37 50.9 °F 51.8 °F 30.1 in NNE 2.2 mph 2.2 mph 98 % 0 in
05:42 50.9 °F 51.8 °F 30.1 in Calm   2.2 mph 98 % 0 in
05:47 50.9 °F 51.8 °F 30.1 in Calm   2.2 mph 98 % 0 in
05:52 50.9 °F 51.8 °F 30.1 in Calm     98 % 0 in
05:57 50.7 °F 50 °F 30.1 in Calm     98 % 0 in
06:02 50.9 °F 51.8 °F 30.1 in NNE 1.3 mph 1.3 mph 98 % 0 in
06:07 50.9 °F 51.8 °F 30.1 in Calm   1.6 mph 98 % 0 in
06:12 50.9 °F 51.8 °F 30.1 in Calm   1.6 mph 98 % 0 in
06:17 51.1 °F 51.8 °F 30.1 in Calm   2.5 mph 98 % 0 in
06:23 51.1 °F 51.8 °F 30.1 in NNW 0.9 mph 2.5 mph 98 % 0 in
06:28 51.1 °F 51.8 °F 30.1 in Calm   2.7 mph 98 % 0 in
06:33 50.9 °F 51.8 °F 30.1 in Calm   2.7 mph 98 % 0 in
06:36 50.9 °F 51.8 °F 30.1 in North 1.6 mph 1.6 mph 98 % 0 in
06:41 51.1 °F 51.8 °F 30.1 in Calm   1.6 mph 98 % 0 in
06:46 51.1 °F 51.8 °F 30.1 in Calm   2.9 mph 98 % 0 in
06:51 51.1 °F 51.8 °F 30.1 in NE 2.9 mph 3.1 mph 98 % 0 in
06:56 50.9 °F 51.8 °F 30.1 in NE 3.4 mph 3.4 mph 98 % 0 in
07:01 50.9 °F 51.8 °F 30.1 in Calm   3.4 mph 98 % 0 in
07:06 50.7 °F 50 °F 30.1 in NE 1.6 mph 2.7 mph 98 % 0 in
07:11 50.7 °F 50 °F 30.1 in NE 3.1 mph 3.1 mph 98 % 0 in
07:16 50.7 °F 50 °F 30.1 in North 3.6 mph 3.8 mph 98 % 0 in
07:21 50.7 °F 50 °F 30.1 in Calm   3.8 mph 98 % 0 in
07:26 50.7 °F 50 °F 30.1 in NNE 1.1 mph 3.8 mph 98 % 0 in
07:31 50.7 °F 50 °F 30.1 in Calm   2.7 mph 98 % 0 in
07:36 50.7 °F 50 °F 30.1 in Calm   2.7 mph 98 % 0 in
07:41 50.7 °F 50 °F 30.1 in Calm   2.7 mph 98 % 0 in
07:46 50.7 °F 50 °F 30.1 in Calm   2.7 mph 98 % 0 in
07:51 50.9 °F 51.8 °F 30.1 in NNE 1.3 mph 3.8 mph 98 % 0 in
07:56 51.1 °F 51.8 °F 30.1 in North 3.1 mph 3.8 mph 98 % 0 in
08:01 51.3 °F 51.8 °F 30.1 in NNE 2 mph 3.1 mph 98 % 0 in
08:06 51.4 °F 51.8 °F 30.1 in Calm   2.7 mph 98 % 0 in
08:11 51.6 °F 51.8 °F 30.1 in Calm   3.8 mph 98 % 0 in
08:16 51.6 °F 51.8 °F 30.1 in Calm   3.8 mph 98 % 0 in
08:21 52.3 °F 51.8 °F 30.1 in Calm   3.6 mph 98 % 0 in
08:26 52.7 °F 53.6 °F 30.1 in Calm   3.6 mph 98 % 0 in
08:32 52.9 °F 53.6 °F 30.1 in Calm   3.4 mph 98 % 0 in
08:37 53.6 °F 53.6 °F 30.1 in NNE 3.4 mph 4.3 mph 98 % 0 in
08:42 53.6 °F 53.6 °F 30.1 in NE 4.3 mph 4.9 mph 98 % 0 in
08:47 53.6 °F 53.6 °F 30.1 in NE 2.5 mph 5.8 mph 98 % 0 in
08:52 55.9 °F 55.4 °F 30.1 in NE 4.5 mph 5.8 mph 98 % 0 in
08:57 56.5 °F 57.2 °F 30.1 in NE 4.5 mph 4.9 mph 98 % 0 in
09:03 56.8 °F 55.4 °F 30.1 in NE 4.5 mph 4.5 mph 97 % 0 in
09:08 57.2 °F 57.2 °F 30.1 in NE 4.5 mph 4.5 mph 97 % 0 in
09:13 57.6 °F 57.2 °F 30.1 in NE 4.5 mph 4.5 mph 96 % 0 in
09:18 58.1 °F 57.2 °F 30.1 in NE 4.5 mph 4.5 mph 96 % 0 in
09:23 58.5 °F 57.2 °F 30.1 in NE 4.5 mph 4.5 mph 96 % 0 in
09:28 58.6 °F 57.2 °F 30.1 in NE 4.5 mph 4.5 mph 95 % 0 in
09:33 58.5 °F 57.2 °F 30.1 in Calm     94 % 0 in
09:38 58.5 °F 57.2 °F 30.1 in Calm     94 % 0 in
09:43 58.8 °F 57.2 °F 30.1 in Calm     94 % 0 in
09:48 58.8 °F 57.2 °F 30.1 in Calm     94 % 0 in
09:53 59.2 °F 57.2 °F 30.1 in Calm     93 % 0 in
09:58 59.4 °F 57.2 °F 30.1 in Calm     93 % 0 in
10:03 60.1 °F 59 °F 30.1 in Calm     93 % 0 in
10:08 60.6 °F 59 °F 30.1 in Calm     92 % 0 in
10:13 61.2 °F 59 °F 30.1 in Calm     92 % 0 in
10:18 61.5 °F 59 °F 30.1 in Calm     91 % 0 in
10:23 61.9 °F 59 °F 30.1 in Calm     90 % 0 in
10:28 62.2 °F 59 °F 30.1 in Calm     90 % 0 in
10:33 62.4 °F 59 °F 30.1 in Calm     89 % 0 in
10:38 63 °F 59 °F 30.1 in Calm     88 % 0 in
10:43 63.1 °F 59 °F 30.1 in Calm     87 % 0 in
10:48 63.3 °F 59 °F 30.1 in Calm     87 % 0 in
10:53 63.3 °F 59 °F 30.1 in Calm     85 % 0 in
10:58 63.5 °F 59 °F 30.1 in Calm     85 % 0 in
11:03 63.7 °F 59 °F 30.1 in Calm     85 % 0 in
11:08 63.9 °F 59 °F 30.1 in Calm     84 % 0 in
11:14 64.2 °F 59 °F 30.1 in Calm     83 % 0 in
11:19 64.4 °F 59 °F 30.1 in Calm     81 % 0 in
11:24 64.9 °F 59 °F 30.1 in Calm     82 % 0 in
11:29 65.5 °F 59 °F 30.1 in Calm     81 % 0 in
11:34 65.7 °F 59 °F 30.1 in Calm     79 % 0 in
11:39 65.7 °F 59 °F 30.1 in Calm     79 % 0 in
11:40 65.7 °F 59 °F 30.1 in Calm     79 % 0 in
11:45 66.4 °F 59 °F 30.1 in Calm     78 % 0 in
11:50 67.1 °F 60.8 °F 30.1 in Calm     78 % 0 in
11:55 67.8 °F 60.8 °F 30.1 in Calm     76 % 0 in
12:00 68.2 °F 59 °F 30.1 in Calm     74 % 0 in
12:05 68 °F 59 °F 30.1 in Calm     73 % 0 in
12:10 68 °F 59 °F 30.1 in Calm     73 % 0 in
12:15 68 °F 59 °F 30.1 in Calm     73 % 0 in
12:20 68.4 °F 59 °F 30.1 in Calm     73 % 0 in
12:25 68.9 °F 60.8 °F 30.1 in Calm     73 % 0 in
12:31 68.9 °F 60.8 °F 30.1 in Calm     72 % 0 in
12:36 69.1 °F 59 °F 30.1 in Calm     71 % 0 in
12:41 69.6 °F 60.8 °F 30.1 in Calm     71 % 0 in
12:46 69.6 °F 59 °F 30.1 in Calm     70 % 0 in
12:51 70 °F 59 °F 30.1 in Calm     69 % 0 in
12:56 70.2 °F 59 °F 30.1 in Calm     69 % 0 in
13:01 70.5 °F 59 °F 30.1 in Calm     69 % 0 in
13:06 70.5 °F 59 °F 30.1 in Calm     67 % 0 in
13:11 70.7 °F 59 °F 30.1 in Calm     67 % 0 in
13:16 70.7 °F 59 °F 30.1 in Calm     66 % 0 in
13:21 71.1 °F 59 °F 30.1 in Calm     67 % 0 in
13:26 71.2 °F 59 °F 30.1 in Calm     67 % 0 in
13:31 71.2 °F 59 °F 30.1 in Calm     66 % 0 in
13:36 71.1 °F 59 °F 30.1 in Calm     65 % 0 in
13:41 71.1 °F 59 °F 30.1 in Calm     65 % 0 in
13:46 70.9 °F 59 °F 30.1 in Calm     64 % 0 in
13:51 70.7 °F 57.2 °F 30.1 in Calm     62 % 0 in
13:56 70.9 °F 59 °F 30.1 in Calm     64 % 0 in
14:01 70.7 °F 57.2 °F 30.1 in Calm     62 % 0 in
14:12 70.5 °F 57.2 °F 30.1 in Calm     62 % 0 in
14:17 70.5 °F 55.4 °F 30.1 in Calm     61 % 0 in
14:22 70.7 °F 57.2 °F 30.1 in Calm     61 % 0 in
14:27 71.1 °F 57.2 °F 30.1 in Calm     61 % 0 in
14:32 70.9 °F 57.2 °F 30.1 in Calm     60 % 0 in
14:37 70.7 °F 55.4 °F 30.1 in Calm     59 % 0 in
14:42 70.7 °F 57.2 °F 30.1 in Calm     61 % 0 in
14:47 70.9 °F 57.2 °F 30.1 in Calm     60 % 0 in
14:52 71.2 °F 55.4 °F 30.1 in Calm     59 % 0 in
14:57 71.4 °F 55.4 °F 30.1 in Calm     58 % 0 in
15:02 71.8 °F 55.4 °F 30.1 in Calm     57 % 0 in
15:07 72 °F 55.4 °F 30.1 in Calm     57 % 0 in
15:12 72.3 °F 57.2 °F 30.1 in Calm     59 % 0 in
15:17 72.7 °F 59 °F 30.1 in Calm     60 % 0 in
15:22 72.3 °F 57.2 °F 30.1 in Calm     58 % 0 in
15:27 72.1 °F 55.4 °F 30.1 in Calm     57 % 0 in
15:32 72.7 °F 55.4 °F 30.1 in Calm     56 % 0 in
15:37 72.5 °F 57.2 °F 30.1 in Calm     59 % 0 in
15:42 72 °F 57.2 °F 30.1 in Calm     58 % 0 in
15:47 72.3 °F 57.2 °F 30.1 in Calm     59 % 0 in
15:52 72.3 °F 57.2 °F 30.1 in Calm     59 % 0 in
15:57 72 °F 57.2 °F 30.1 in Calm     59 % 0 in
16:02 72 °F 57.2 °F 30.1 in Calm     59 % 0 in
16:07 72 °F 57.2 °F 30.1 in Calm     60 % 0 in
16:13 71.8 °F 57.2 °F 30.1 in Calm     59 % 0 in
16:18 71.4 °F 57.2 °F 30.1 in Calm     60 % 0 in
16:23 71.2 °F 57.2 °F 30.1 in Calm     62 % 0 in
16:28 71.1 °F 57.2 °F 30.1 in Calm     61 % 0 in
16:33 71.2 °F 57.2 °F 30.1 in Calm     61 % 0 in
16:38 72 °F 57.2 °F 30.1 in ESE 5.8 mph 5.8 mph 59 % 0 in
16:43 72.7 °F 59 °F 30.1 in ESE 5.8 mph 5.8 mph 60 % 0 in
16:48 72.5 °F 57.2 °F 30.1 in ESE 5.8 mph 5.8 mph 58 % 0 in
16:53 72.3 °F 57.2 °F 30.1 in ESE 5.8 mph 5.8 mph 58 % 0 in
16:58 71.8 °F 55.4 °F 30.1 in ESE 5.8 mph 5.8 mph 57 % 0 in
17:03 71.8 °F 55.4 °F 30.1 in ESE 5.8 mph 5.8 mph 58 % 0 in
17:08 71.4 °F 57.2 °F 30.1 in ESE 5.8 mph 5.8 mph 59 % 0 in
17:13 71.2 °F 55.4 °F 30.1 in ESE 5.8 mph 5.8 mph 58 % 0 in
17:18 71.6 °F 55.4 °F 30.1 in ESE 5.8 mph 5.8 mph 57 % 0 in
17:23 71.8 °F 57.2 °F 30.1 in ESE 5.8 mph 5.8 mph 59 % 0 in
17:28 71.6 °F 55.4 °F 30.1 in ESE 5.8 mph 5.8 mph 58 % 0 in
17:33 71.4 °F 57.2 °F 30.1 in ESE 5.8 mph 5.8 mph 59 % 0 in
17:38 71.2 °F 55.4 °F 30.1 in ESE 5.8 mph 5.8 mph 58 % 0 in
17:43 70.9 °F 55.4 °F 30.1 in ESE 5.8 mph 5.8 mph 58 % 0 in
17:49 70.9 °F 55.4 °F 30.1 in ESE 5.8 mph 5.8 mph 59 % 0 in
17:54 70.5 °F 55.4 °F 30.1 in ESE 5.8 mph 5.8 mph 59 % 0 in
17:59 70.5 °F 55.4 °F 30.1 in ESE 5.8 mph 5.8 mph 59 % 0 in
18:04 70.3 °F 55.4 °F 30.1 in ESE 5.8 mph 5.8 mph 59 % 0 in
18:09 70 °F 55.4 °F 30.1 in ESE 5.8 mph 5.8 mph 59 % 0 in
18:14 69.8 °F 55.4 °F 30.1 in ESE 5.8 mph 5.8 mph 60 % 0 in
18:20 70 °F 55.4 °F 30.1 in ESE 5.8 mph 5.8 mph 59 % 0 in
18:25 70 °F 55.4 °F 30.1 in ESE 5.8 mph 5.8 mph 59 % 0 in
18:30 69.6 °F 55.4 °F 30.1 in ESE 5.8 mph 5.8 mph 61 % 0 in
18:35 69.4 °F 55.4 °F 30.1 in ESE 5.8 mph 5.8 mph 62 % 0 in
18:40 68.9 °F 55.4 °F 30.1 in ESE 5.8 mph 5.8 mph 63 % 0 in
18:45 68.2 °F 55.4 °F 30.1 in ESE 5.8 mph 5.8 mph 63 % 0 in
18:50 67.8 °F 55.4 °F 30.1 in ESE 5.8 mph 5.8 mph 65 % 0 in
18:55 67.5 °F 55.4 °F 30.1 in ESE 5.8 mph 5.8 mph 66 % 0 in
19:00 67.1 °F 55.4 °F 30.1 in ESE 5.8 mph 5.8 mph 67 % 0 in
19:05 66.7 °F 55.4 °F 30.1 in ESE 5.8 mph 5.8 mph 68 % 0 in
19:10 66.2 °F 55.4 °F 30.1 in ESE 5.8 mph 5.8 mph 69 % 0 in
19:11 66.2 °F 55.4 °F 30.1 in ESE 5.8 mph 5.8 mph 69 % 0 in
19:16 66 °F 55.4 °F 30.1 in ESE 5.8 mph 5.8 mph 69 % 0 in
19:21 65.7 °F 55.4 °F 30.1 in ESE 5.8 mph 5.8 mph 70 % 0 in
19:26 65.3 °F 55.4 °F 30.1 in ESE 5.8 mph 5.8 mph 70 % 0 in
19:31 64.9 °F 55.4 °F 30.1 in ESE 5.8 mph 5.8 mph 70 % 0 in
19:36 64.6 °F 55.4 °F 30.1 in ESE 5.8 mph 5.8 mph 72 % 0 in
19:41 64.2 °F 55.4 °F 30.1 in ESE 5.8 mph 5.8 mph 73 % 0 in
19:46 63.9 °F 55.4 °F 30.1 in ESE 5.8 mph 5.8 mph 74 % 0 in
19:51 63.5 °F 55.4 °F 30.1 in ESE 5.8 mph 5.8 mph 73 % 0 in
19:56 63.1 °F 55.4 °F 30.1 in ESE 5.8 mph 5.8 mph 75 % 0 in
20:01 63 °F 55.4 °F 30.1 in ESE 5.8 mph 5.8 mph 76 % 0 in
20:06 62.8 °F 55.4 °F 30.1 in ESE 5.8 mph 5.8 mph 76 % 0 in
20:11 62.6 °F 55.4 °F 30.1 in ESE 5.8 mph 5.8 mph 77 % 0 in
20:16 62.4 °F 55.4 °F 30.1 in ESE 5.8 mph 5.8 mph 77 % 0 in
20:21 62.2 °F 55.4 °F 30.1 in ESE 5.8 mph 5.8 mph 78 % 0 in
20:26 62.1 °F 55.4 °F 30.1 in ESE 5.8 mph 5.8 mph 78 % 0 in
20:31 61.7 °F 55.4 °F 30.1 in ESE 5.8 mph 5.8 mph 80 % 0 in
20:36 61.5 °F 55.4 °F 30.1 in ESE 5.8 mph 5.8 mph 79 % 0 in
20:41 61.3 °F 55.4 °F 30.1 in ESE 5.8 mph 5.8 mph 80 % 0 in
20:44 61.3 °F 55.4 °F 30.1 in ESE 5.8 mph 5.8 mph 80 % 0 in
20:49 61.2 °F 55.4 °F 30.1 in Calm     81 % 0 in
20:54 61 °F 55.4 °F 30.1 in Calm     81 % 0 in
20:59 60.8 °F 55.4 °F 30.1 in Calm     81 % 0 in
21:04 60.6 °F 55.4 °F 30.1 in Calm     82 % 0 in
21:10 60.6 °F 55.4 °F 30.1 in Calm     82 % 0 in
21:15 60.4 °F 55.4 °F 30.1 in Calm     82 % 0 in
21:20 60.4 °F 55.4 °F 30.1 in Calm     83 % 0 in
21:25 60.3 °F 55.4 °F 30.1 in Calm     83 % 0 in
21:30 60.1 °F 55.4 °F 30.1 in Calm     84 % 0 in
21:35 59.9 °F 55.4 °F 30.1 in Calm     85 % 0 in
21:40 59.7 °F 55.4 °F 30.1 in Calm     85 % 0 in
21:45 59.5 °F 55.4 °F 30.1 in Calm     86 % 0 in
21:50 59.4 °F 55.4 °F 30.1 in Calm     86 % 0 in
21:55 59.4 °F 55.4 °F 30.1 in Calm     87 % 0 in
21:57 59.2 °F 55.4 °F 30.1 in Calm     88 % 0 in
22:07 59 °F 55.4 °F 30.1 in Calm     89 % 0 in
22:12 58.8 °F 55.4 °F 30.1 in Calm     90 % 0 in
22:17 58.6 °F 55.4 °F 30.1 in Calm     91 % 0 in
22:22 58.6 °F 55.4 °F 30.1 in Calm     90 % 0 in
22:27 58.5 °F 55.4 °F 30.1 in Calm     91 % 0 in
22:32 58.3 °F 55.4 °F 30.1 in Calm     91 % 0 in
22:37 58.1 °F 55.4 °F 30.1 in Calm     92 % 0 in
22:47 57.9 °F 55.4 °F 30.1 in Calm     92 % 0 in
22:52 57.7 °F 55.4 °F 30.1 in Calm     93 % 0 in
22:53 57.7 °F 55.4 °F 30.1 in Calm     93 % 0 in
22:58 57.6 °F 55.4 °F 30.1 in Calm     93 % 0 in
23:03 57.4 °F 55.4 °F 30.1 in Calm     93 % 0 in
23:08 57.4 °F 55.4 °F 30.1 in NE 3.4 mph 3.4 mph 94 % 0 in
23:13 57.2 °F 55.4 °F 30.1 in NE 2.7 mph 3.8 mph 94 % 0 in
23:18 57 °F 55.4 °F 30.1 in Calm   3.8 mph 94 % 0 in
23:23 56.8 °F 55.4 °F 30.1 in Calm   3.1 mph 94 % 0 in
23:28 56.8 °F 55.4 °F 30.1 in Calm   3.1 mph 94 % 0 in
23:31 56.8 °F 55.4 °F 30.1 in North 1.6 mph 2.5 mph 94 % 0 in
23:36 56.7 °F 55.4 °F 30.1 in Calm   2.9 mph 94 % 0 in
23:41 56.7 °F 55.4 °F 30.1 in North 2.5 mph 2.9 mph 94 % 0 in
23:47 56.7 °F 55.4 °F 30.1 in Calm   4 mph 94 % 0 in
23:52 56.5 °F 55.4 °F 30.1 in Calm   4 mph 95 % 0 in
23:57 56.5 °F 55.4 °F 30.1 in North 3.4 mph 4.3 mph 95 % 0 in
Le Gheer Warneton
Courtoisie de Weather Underground - 2.25 mb

Mise a jour : 16-12-17 12:15:12
Généré par Cumulus 1.9.4 (1099)